Weather History for Litchfield, MN

Change the Weather History Date:

Wednesday, March 19, 2014

  Actual Average Record
Temperature  
Mean Temperature 30 °F -  
Max Temperature 35 °F 41 °F 75 °F (2012)
Min Temperature 26 °F 24 °F -6 °F (1965)
Degree Days  
Heating Degree Days 34    
Moisture  
Dew Point 27 °F    
Average Humidity 84    
Maximum Humidity 100    
Minimum Humidity 70    
Precipitation  
Precipitation 0.00 in - - ()
Sea Level Pressure  
Sea Level Pressure 29.91 in    
Wind  
Wind Speed 8 mph (NW)    
Max Wind Speed 14 mph    
Max Gust Speed 22 mph    
Visibility 10 miles    
Events      
Averages and records for this station are not official NWS values.
T = Trace of Precipitation, MM = Missing Value Source: NWS Daily Summary

Daily Weather History Graph

Daily Weather History Graph

Search for Another Location

Airport:

Trip Planner

Search our weather history database for the weather conditions in past years. The results will help you decide how hot, cold, wet, or windy it might be!

Date:

Astronomy

Mar. 19, 2014 Rise Set
Actual Time 7:22 AM CDT 7:29 PM CDT
Civil Twilight 6:53 AM CDT 7:58 PM CDT
Nautical Twilight 6:19 AM CDT 8:33 PM CDT
Astronomical Twilight 5:44 AM CDT 9:08 PM CDT
Moon 10:58 PM CDT (3/19) 8:41 AM CDT (3/19)
Length of Visible Light 13h 04m
Length of Day
12h 06m
Waning Gibbous, 91% of the Moon is Illuminated
Mar 19
Waning Gibbous
Mar 23
Last Quarter
Mar 30
New
Apr 7
First Quarter
Apr 15
Full

Hourly Weather History & Observations

Time (CDT) Temp. Windchill Dew Point Humidity Pressure Visibility Wind Dir Wind Speed Gust Speed Precip Events Conditions
12:12 AM 28.4 °F 19.7 °F 26.6 °F 93% 29.84 in 10.0 mi North 9.2 mph - N/A   Scattered Clouds
12:33 AM 28.4 °F 19.7 °F 26.6 °F 93% 29.84 in 10.0 mi North 9.2 mph - N/A   Mostly Cloudy
12:53 AM 28.4 °F 19.7 °F 26.6 °F 93% 29.84 in 10.0 mi North 9.2 mph - N/A   Overcast
1:12 AM 28.4 °F 19.7 °F 26.6 °F 93% 29.84 in 10.0 mi North 9.2 mph - N/A   Overcast
1:33 AM 28.4 °F 19.7 °F 26.6 °F 93% 29.84 in 10.0 mi North 9.2 mph - N/A   Overcast
1:53 AM 28.4 °F 19.1 °F 26.6 °F 93% 29.84 in 10.0 mi NNW 10.4 mph - N/A   Overcast
2:12 AM 28.4 °F 18.5 °F 26.6 °F 93% 29.84 in 10.0 mi NNW 11.5 mph - N/A   Overcast
2:33 AM 28.4 °F 19.1 °F 26.6 °F 93% 29.85 in 10.0 mi NNW 10.4 mph - N/A   Overcast
2:53 AM 28.4 °F 19.1 °F 26.6 °F 93% 29.84 in 10.0 mi NNW 10.4 mph - N/A   Overcast
3:12 AM 26.6 °F 17.5 °F 24.8 °F 93% 29.84 in 10.0 mi NNW 9.2 mph - N/A   Overcast
3:33 AM 26.6 °F 18.2 °F 26.6 °F 100% 29.83 in 10.0 mi NNW 8.1 mph - N/A   Overcast
3:53 AM 28.4 °F 20.4 °F 26.6 °F 93% 29.83 in 10.0 mi NNW 8.1 mph - N/A   Overcast
4:12 AM 28.4 °F 19.1 °F 26.6 °F 93% 29.83 in 10.0 mi NNW 10.4 mph - N/A   Mostly Cloudy
4:33 AM 28.4 °F 20.4 °F 26.6 °F 93% 29.83 in 10.0 mi NNW 8.1 mph - N/A   Mostly Cloudy
4:53 AM 28.4 °F 20.4 °F 26.6 °F 93% 29.84 in 10.0 mi NNW 8.1 mph - N/A   Mostly Cloudy
5:12 AM 28.4 °F 22.2 °F 26.6 °F 93% 29.84 in 10.0 mi NW 5.8 mph - N/A   Overcast
5:33 AM 28.4 °F 23.3 °F 26.6 °F 93% 29.85 in 10.0 mi NW 4.6 mph - N/A   Overcast
5:53 AM 28.4 °F 23.3 °F 26.6 °F 93% 29.86 in 10.0 mi NW 4.6 mph - N/A   Overcast
6:12 AM 28.4 °F 21.2 °F 26.6 °F 93% 29.86 in 10.0 mi NW 6.9 mph - N/A   Overcast
6:33 AM 28.4 °F 22.2 °F 26.6 °F 93% 29.87 in 10.0 mi NW 5.8 mph - N/A   Overcast
6:53 AM 30.2 °F 25.4 °F 26.6 °F 86% 29.87 in 10.0 mi NW 4.6 mph - N/A   Overcast
7:12 AM 30.2 °F 24.3 °F 26.6 °F 86% 29.88 in 10.0 mi NW 5.8 mph - N/A   Overcast
7:33 AM 30.2 °F 22.6 °F 26.6 °F 86% 29.88 in 10.0 mi NW 8.1 mph - N/A   Overcast
7:53 AM 30.2 °F 20.8 °F 24.8 °F 80% 29.89 in 10.0 mi NW 11.5 mph - N/A   Overcast
8:12 AM 30.2 °F 19.8 °F 24.8 °F 80% 29.89 in 10.0 mi NNW 13.8 mph 21.9 mph N/A   Overcast
8:33 AM 30.2 °F 21.3 °F 24.8 °F 80% 29.89 in 10.0 mi NNW 10.4 mph 13.8 mph N/A   Overcast
8:53 AM 30.2 °F 21.9 °F 24.8 °F 80% 29.90 in 10.0 mi NNW 9.2 mph - N/A   Overcast
9:12 AM 30.2 °F 20.8 °F 24.8 °F 80% 29.90 in 10.0 mi NNW 11.5 mph - N/A   Overcast
9:33 AM 30.2 °F 22.6 °F 24.8 °F 80% 29.91 in 10.0 mi NNW 8.1 mph - N/A   Overcast
9:53 AM 32.0 °F 23.6 °F 24.8 °F 75% 29.91 in 10.0 mi NNW 10.4 mph - N/A   Overcast
10:12 AM 32.0 °F 24.2 °F 24.8 °F 75% 29.91 in 10.0 mi NNW 9.2 mph - N/A   Overcast
10:33 AM 33.8 °F 25.8 °F 24.8 °F 70% 29.92 in 10.0 mi NW 10.4 mph - N/A   Overcast
10:53 AM 33.8 °F 26.4 °F 26.6 °F 75% 29.93 in 10.0 mi WNW 9.2 mph - N/A   Overcast
11:12 AM 33.8 °F 27.0 °F 28.4 °F 81% 29.93 in 10.0 mi NW 8.1 mph - N/A   Overcast
11:33 AM 33.8 °F 25.3 °F 28.4 °F 81% 29.93 in 10.0 mi WNW 11.5 mph - N/A   Overcast
11:53 AM 33.8 °F 26.4 °F 28.4 °F 81% 29.93 in 10.0 mi West 9.2 mph - N/A   Overcast
12:12 PM 33.8 °F 26.4 °F 28.4 °F 81% 29.93 in 10.0 mi West 9.2 mph - N/A   Overcast
12:33 PM 33.8 °F 25.8 °F 28.4 °F 81% 29.93 in 10.0 mi West 10.4 mph - N/A   Overcast
12:53 PM 33.8 °F 25.8 °F 28.4 °F 81% 29.93 in 10.0 mi WNW 10.4 mph - N/A   Mostly Cloudy
1:12 PM 33.8 °F 26.4 °F 28.4 °F 81% 29.93 in 10.0 mi WNW 9.2 mph - N/A   Scattered Clouds
1:33 PM 35.6 °F 26.6 °F 28.4 °F 75% 29.94 in 10.0 mi WNW 13.8 mph - N/A   Scattered Clouds
1:53 PM 35.6 °F 28.0 °F 28.4 °F 75% 29.93 in 10.0 mi WNW 10.4 mph - N/A   Scattered Clouds
2:12 PM 35.6 °F 28.6 °F 28.4 °F 75% 29.93 in 10.0 mi West 9.2 mph - N/A   Mostly Cloudy
2:33 PM 35.6 °F 28.0 °F 28.4 °F 75% 29.93 in 10.0 mi West 10.4 mph - N/A   Scattered Clouds
2:53 PM 35.6 °F 29.2 °F 28.4 °F 75% 29.93 in 10.0 mi West 8.1 mph - N/A   Clear
3:12 PM 35.6 °F 28.0 °F 28.4 °F 75% 29.93 in 10.0 mi West 10.4 mph 17.3 mph N/A   Clear
3:33 PM 35.6 °F 27.5 °F 28.4 °F 75% 29.93 in 10.0 mi West 11.5 mph 18.4 mph N/A   Clear
3:53 PM 35.6 °F 27.1 °F 28.4 °F 75% 29.93 in 10.0 mi West 12.7 mph - N/A   Clear
4:12 PM 35.6 °F 27.1 °F 28.4 °F 75% 29.94 in 10.0 mi West 12.7 mph 17.3 mph N/A   Clear
4:33 PM 35.6 °F 27.1 °F 28.4 °F 75% 29.94 in 10.0 mi West 12.7 mph 19.6 mph N/A   Clear
4:53 PM 35.6 °F 27.5 °F 28.4 °F 75% 29.94 in 10.0 mi West 11.5 mph 16.1 mph N/A   Scattered Clouds
5:12 PM 35.6 °F 27.1 °F 26.6 °F 70% 29.94 in 10.0 mi WNW 12.7 mph 17.3 mph N/A   Mostly Cloudy
5:33 PM 35.6 °F 28.6 °F 26.6 °F 70% 29.95 in 10.0 mi WNW 9.2 mph - N/A   Overcast
5:53 PM 35.6 °F 28.0 °F 26.6 °F 70% 29.95 in 10.0 mi WNW 10.4 mph - N/A   Overcast
6:12 PM 35.6 °F 28.6 °F 26.6 °F 70% 29.96 in 10.0 mi WNW 9.2 mph - N/A   Mostly Cloudy
6:33 PM 35.6 °F 29.9 °F 26.6 °F 70% 29.96 in 10.0 mi WNW 6.9 mph - N/A   Mostly Cloudy
6:53 PM 35.6 °F 29.9 °F 26.6 °F 70% 29.96 in 10.0 mi NW 6.9 mph - N/A   Overcast
7:13 PM 33.8 °F 27.0 °F 26.6 °F 75% 29.96 in 10.0 mi NW 8.1 mph - N/A   Overcast
7:33 PM 33.8 °F 29.6 °F 26.6 °F 75% 29.96 in 10.0 mi WNW 4.6 mph - N/A   Overcast
7:52 PM 32.0 °F - 26.6 °F 80% 29.96 in 10.0 mi Calm Calm - N/A   Scattered Clouds
8:13 PM 32.0 °F - 26.6 °F 80% 29.97 in 10.0 mi Calm Calm - N/A   Mostly Cloudy
8:32 PM 32.0 °F - 26.6 °F 80% 29.97 in 10.0 mi Calm Calm - N/A   Overcast
8:53 PM 32.0 °F - 28.4 °F 87% 29.98 in 10.0 mi Calm Calm - N/A   Overcast
9:13 PM 32.0 °F - 28.4 °F 87% 29.98 in 10.0 mi Calm Calm - N/A   Overcast
9:32 PM 32.0 °F - 28.4 °F 87% 29.97 in 10.0 mi Calm Calm - N/A   Unknown
9:53 PM 32.0 °F - 28.4 °F 87% 29.98 in 10.0 mi Calm Calm - N/A   Overcast
10:13 PM 32.0 °F - 28.4 °F 87% 29.98 in 10.0 mi Calm Calm - N/A   Unknown
10:32 PM 30.2 °F - 28.4 °F 93% 29.98 in 10.0 mi Calm Calm - N/A   Scattered Clouds
10:53 PM 30.2 °F - 28.4 °F 93% 29.98 in 10.0 mi Calm Calm - N/A   Clear
11:12 PM 28.4 °F - 28.4 °F 100% 29.98 in 10.0 mi Calm Calm - N/A   Unknown
11:33 PM 28.4 °F - 28.4 °F 100% 29.98 in 10.0 mi Calm Calm - N/A   Clear
11:53 PM 28.4 °F - 28.4 °F 100% 29.98 in 10.0 mi Calm Calm - N/A   Clear